Location: Pedholt
(56.0260°N, 10.2097°E)
Time: 00:03:32
(UTC+00:00)

Daily predictions for brighter satellites

Satellite Brightness Start Highest point End
(mag) Time Altitude Azimuth Time Altitude Azimuth Time Altitude Azimuth
Abrixas rocket 4.0 00:03:46 14° SE 00:03:46 14° SE 00:04:32 10° SE
CZ-4 R/B 3.8 00:01:05 10° NNE 00:05:50 82° ESE 00:09:37 17° SSW
GENESIS II 4.4 00:02:04 10° SW 00:06:09 77° NW 00:10:14 10° NE
Cosmos 2242 Rocket 3.7 00:02:51 10° N 00:07:28 80° ENE 00:11:25 14° SSE
Landsat 4 3.9 00:04:05 10° NNE 00:07:52 67° WNW 00:10:43 17° SSW
Cosmos 1441 Rocket 3.5 00:10:43 17° SSW 00:13:42 61° WNW 00:17:37 10° N
Spot 1 4.4 00:09:48 11° SSE 00:14:30 80° ENE 00:19:06 10° NNW
Lacrosse 5 2.2 00:10:39 14° SW 00:14:49 46° SE 00:19:41 10° ENE
IRAS Rocket 4.3 00:12:12 10° SSE 00:17:41 82° ENE 00:23:14 10° NNW
Meteor 1-4 Rocket 2.9 00:15:19 10° NNW 00:18:57 51° W 00:21:27 18° S
SL-16 R/B 2.9 00:13:09 10° SSE 00:19:21 70° ENE 00:25:36 10° NNW
Meteor 2-4 Rocket 4.4 00:13:29 10° N 00:19:23 58° ENE 00:25:12 10° SSE
BREEZE-M DEB (TANK) 4.5 00:14:08 10° WSW 00:20:31 26° S 00:23:41 10° SE
Cosmos 1602 4.3 00:17:36 15° SSE 00:20:33 49° E 00:24:18 10° NNE
Okean 1 3.3 00:16:47 10° NNW 00:20:48 89° W 00:24:06 15° S
Cosmos 1607 4.0 00:20:34 10° SW 00:26:50 84° NW 00:33:15 10° NE
Cosmos 1933 Rocket 3.7 00:23:25 16° S 00:26:52 70° E 00:31:13 10° NNE
Cosmos 1943 4.1 00:21:26 10° WSW 00:26:53 46° NW 00:32:20 10° NNE
Cosmos 1666 Rocket 4.2 00:23:50 14° SW 00:27:22 47° WNW 00:31:37 10° N
Iridium 4 Rocket 3.7 00:24:13 15° S 00:28:55 75° W 00:34:09 10° N
Helios 1B rocket 2.5 00:25:38 10° NNE 00:29:45 74° WNW 00:33:01 16° SSW
Cosmos 1697 Rocket 3.0 00:24:46 10° NNW 00:30:26 72° NE 00:36:03 10° SE
MOZ.5/SAFIR/RUBIN 5/SL-8 3.9 00:25:51 11° SSE 00:30:33 88° ENE 00:35:22 10° NNW
Cosmos 921 Rocket 4.5 00:28:01 10° NNW 00:32:13 39° NE 00:36:19 10° SE
Cosmos 1437 Rocket 3.2 00:29:38 10° N 00:33:41 62° ENE 00:37:38 10° SSE
Cosmos 1703 Rocket 3.6 00:29:36 10° NNW 00:34:06 82° W 00:38:05 13° S
SeaSat 1 4.1 00:36:39 10° NE 00:40:37 23° ESE 00:44:32 10° SSE
NOSS 7 (D) 3.8 00:39:12 10° WNW 00:41:54 64° SW 00:44:49 10° SE
CZ-2D R/B 2.9 00:38:44 10° NNE 00:43:52 46° E 00:49:03 10° S
Cosmos 2082 Rocket 4.2 00:42:37 10° SE 00:46:28 19° E 00:50:20 10° ENE
SL-4 R/B 3.2 00:44:57 10° W 00:47:09 22° NNW 00:49:19 10° NNE
Cosmos 614 Rocket 4.5 00:43:22 13° S 00:47:44 50° ESE 00:52:43 10° NE
Cosmos 1833 Rocket 4.0 00:45:17 10° SSE 00:50:03 29° ESE 00:54:48 10° NE
Cosmos 1656 3.7 00:44:53 10° NW 00:50:14 59° WSW 00:55:34 10° SSE
DELTA 2 DEB (DPAF) 4.2 00:46:51 12° S 00:50:56 63° WSW 00:55:22 10° NNW
Cosmos 2100 Rocket 4.1 00:45:06 12° S 00:50:56 80° E 00:57:11 10° NNE
Cosmos 1184 Rocket 2.8 00:49:58 16° SSW 00:52:27 77° WNW 00:55:45 10° NNE
Meteor 1-25 Rocket 4.3 00:47:42 14° SSW 00:52:39 75° WNW 00:58:15 10° NNE
Cosmos 1238 Rocket 3.8 00:50:05 13° SSW 00:54:32 49° WNW 00:58:43 10° N
COSMOS 2406 4.0 00:49:39 11° S 00:54:47 43° ESE 01:00:12 10° NE
Cosmos 405 Rocket 2.8 00:52:44 14° S 00:55:58 73° E 00:59:43 10° NNE
Cosmos 2360 4.4 00:51:07 10° NW 00:56:55 83° NE 01:02:40 10° SE
Meteor 1-29 3.4 00:54:19 10° N 00:57:39 51° WNW 01:00:26 14° SW
Cosmos 1459 Rocket 4.0 00:52:49 12° S 00:58:35 83° E 01:04:49 10° NNE
Cosmos 220 Rocket 4.2 00:54:26 10° NW 00:58:36 53° WSW 01:02:43 10° S
Cosmos 407 Rocket 4.2 00:55:13 11° S 01:00:07 50° ESE 01:05:18 10° NE
Cosmos 1500 3.7 00:58:26 11° S 01:02:02 53° E 01:05:44 10° NNE
Meteor 1-20 Rocket 4.5 00:58:23 12° SSW 01:03:28 63° WNW 01:09:10 10° N
Cosmos 724 4.3 00:59:22 11° SW 01:05:03 86° SE 01:10:58 10° NE
Cosmos 2322 Rocket 4.2 01:00:15 10° NNW 01:05:21 33° NE 01:10:28 10° E
Cosmos 1802 Rocket 4.2 01:03:01 10° S 01:09:23 82° E 01:15:52 10° NNE
Meteor 1-13 Rocket 4.4 01:05:15 10° NNW 01:11:06 85° ENE 01:16:47 10° SSE
Cosmos 1515 4.4 01:08:59 10° NNW 01:12:34 39° W 01:15:49 12° SSW
CZ-4C R/B 3.5 01:11:32 11° S 01:15:04 48° WSW 01:18:38 10° NNW
ARIANE 5 R/B 4.5 01:11:39 10° NE 01:15:43 23° E 01:19:47 10° SE
Okean 1-7 3.8 01:11:44 10° NNW 01:15:53 39° W 01:19:46 11° SSW
Cosmos 1666 3.9 01:14:01 10° SSE 01:17:30 37° E 01:21:00 10° NNE
Cosmos 1818 3.7 01:15:54 10° NW 01:21:24 82° NE 01:26:52 10° SE
ADEOS II 3.1 01:17:08 10° NNE 01:22:07 41° E 01:27:05 10° SSE
NPP 3.8 01:17:42 10° NNE 01:23:08 75° ESE 01:28:32 10° S
Resurs 1-4 Rocket 2.2 01:21:27 10° NNE 01:26:50 89° ESE 01:32:09 10° SSW
Cosmos 1725 Rocket 4.1 01:21:39 10° S 01:27:51 80° E 01:34:09 10° NNE
SL-08 R/B 3.9 01:26:23 10° SSE 01:31:07 64° ENE 01:35:58 10° NNW
AQUA 4.0 01:26:21 10° NNE 01:31:09 73° ESE 01:35:54 10° S
ISS -2.9 01:28:18 10° W 01:31:18 30° SSW 01:34:17 10° SE
Cosmos 1733 Rocket 3.8 01:30:43 10° S 01:34:52 49° E 01:39:04 10° NNE
Tsikada Rocket 4.1 01:30:23 10° NNW 01:36:48 72° W 01:43:11 10° S
Abrixas rocket 3.7 01:35:28 10° SW 01:37:12 15° SSW 01:38:55 10° SSE
Cosmos 2360 Rocket 4.3 01:32:28 10° NNW 01:37:35 33° NE 01:42:41 10° E
UNK 4.5 01:33:19 10° SSW 01:37:36 37° W 01:41:55 10° NNW
Cosmos 2251 Rocket 4.4 01:33:25 10° WSW 01:38:23 42° NW 01:43:24 10° NNE
ATLAS 5 CENTAUR R/B 2.3 01:35:10 10° NW 01:40:32 66° SW 01:46:49 10° SE
USA 215 3.4 01:35:28 10° E 01:42:04 83° N 01:48:39 10° W
Gbstr 26 Del rocket 3.9 01:40:03 10° W 01:43:35 28° SSW 01:47:39 10° SE
Cosmos 1242 Rocket 3.4 01:41:27 10° N 01:44:51 49° ENE 01:48:14 10° SSE
Cosmos 2369 4.1 01:39:50 10° NW 01:45:18 47° WSW 01:50:45 10° S
Cosmos 1980 Rocket 2.2 01:40:34 10° NW 01:46:15 68° WSW 01:51:53 10° SSE
Cosmos 2061 Rocket 4.2 01:42:28 10° SSW 01:48:47 69° WNW 01:55:05 10° N
Cosmos 2173 Rocket 4.5 01:43:26 10° SW 01:49:36 51° WNW 01:55:44 10° N
Okean 3 4.2 01:50:12 10° NNW 01:54:04 37° W 01:57:56 10° SSW
Cosmos 1378 3.6 01:50:29 10° N 01:54:14 65° ENE 01:57:58 10° SSE
Lacrosse 5 2.0 01:52:29 10° WSW 01:57:37 87° N 02:02:43 10° ENE
IDEFIX/ARIANE 42P 4.2 01:53:00 10° NNE 01:57:38 32° E 02:02:14 10° SSE
Cosmos 2016 Rocket 4.3 01:54:22 10° SSW 02:00:26 59° WNW 02:06:39 10° N
Meteor 1-5 Rocket 4.5 01:56:33 10° SSW 02:02:15 68° WNW 02:08:11 10° NNE
